timestamp,surface_pressure_avg,surface_temp_avg,battery_voltage,lat,long
2017-10-09 00:00:00+00:00,333.3647,12.5,12.89,47.84626,-54.09684
2017-10-09 00:10:00+00:00,338.9946,12.5,12.81,47.84626,-54.09684
2017-10-09 00:20:00+00:00,347.028,12.5,12.89,47.84626,-54.09684
2017-10-09 00:30:00+00:00,357.8596,12.5,12.89,47.84626,-54.09684
2017-10-09 00:40:00+00:00,360.0779,12.5,12.89,47.84626,-54.09684
2017-10-09 00:50:00+00:00,359.2896,12.5,12.89,47.84626,-54.09684
2017-10-09 01:00:00+00:00,361.878,12.5,12.89,47.84626,-54.09684
2017-10-09 01:10:00+00:00,365.5712,12.5,12.81,47.84626,-54.09684
2017-10-09 01:20:00+00:00,364.8263,12.5,12.89,47.84626,-54.09684
2017-10-09 01:30:00+00:00,363.2012,12.5,12.89,47.84626,-54.09684
2017-10-09 01:40:00+00:00,364.5079,12.5,12.89,47.84626,-54.09684
2017-10-09 01:50:00+00:00,363.4263,12.5,12.89,47.84626,-54.09684
2017-10-09 02:00:00+00:00,361.1846,12.5,12.89,47.84626,-54.09684
2017-10-09 02:10:00+00:00,361.7162,12.5,12.81,47.84626,-54.09684
2017-10-09 02:20:00+00:00,360.4564,12.5,12.89,47.84626,-54.09684
2017-10-09 02:30:00+00:00,355.3313,12.5,12.89,47.84626,-54.09684
2017-10-09 02:40:00+00:00,351.108,12.5,12.89,47.84626,-54.09684
2017-10-09 02:50:00+00:00,346.9664,12.5,12.89,47.84626,-54.09684
2017-10-09 03:00:00+00:00,336.178,12.5,12.89,47.84626,-54.09684
2017-10-09 03:10:00+00:00,331.1964,12.5,12.81,47.84626,-54.09684
2017-10-09 03:20:00+00:00,334.4396,12.5,12.89,47.84626,-54.09684
2017-10-09 03:30:00+00:00,328.313,12.5,12.89,47.84626,-54.09684
2017-10-09 03:40:00+00:00,315.148,12.5,12.89,47.84626,-54.09684
2017-10-09 03:50:00+00:00,311.5997,12.5,12.89,47.84626,-54.09684
2017-10-09 04:00:00+00:00,308.5098,12.5,12.89,47.84626,-54.09684
2017-10-09 04:10:00+00:00,294.0513,12.5,12.81,47.84626,-54.09684
2017-10-09 04:20:00+00:00,280.0364,12.5,12.89,47.84626,-54.09684
2017-10-09 04:30:00+00:00,276.4097,12.5,12.89,47.84626,-54.09684
2017-10-09 04:40:00+00:00,273.0797,12.5,12.89,47.84626,-54.09684
2017-10-09 04:50:00+00:00,262.2847,12.5,12.89,47.84626,-54.09684
2017-10-09 05:00:00+00:00,247.0231,12.5,12.89,47.84626,-54.09684
2017-10-09 05:10:00+00:00,239.0214,12.5,12.81,47.84626,-54.09684
2017-10-09 05:20:00+00:00,231.7981,12.5,12.89,47.84626,-54.09684
2017-10-09 05:30:00+00:00,218.7831,12.5,12.89,47.84626,-54.09684
2017-10-09 05:40:00+00:00,208.0181,12.5,12.89,47.84626,-54.09684
2017-10-09 05:50:00+00:00,203.6714,12.5,12.89,47.84626,-54.09684
2017-10-09 06:00:00+00:00,195.9798,12.5,12.89,47.84626,-54.09684
2017-10-09 06:10:00+00:00,191.7531,12.5,12.81,47.84626,-54.09684
2017-10-09 06:20:00+00:00,190.7165,12.5,12.89,47.84626,-54.09684
2017-10-09 06:30:00+00:00,186.4698,12.5,12.89,47.84626,-54.09684
2017-10-09 06:40:00+00:00,182.1198,12.5,12.89,47.84626,-54.09684
2017-10-09 06:50:00+00:00,181.3148,12.5,12.89,47.84626,-54.09684
2017-10-09 07:00:00+00:00,178.7881,12.5,12.89,47.84626,-54.09684
2017-10-09 07:10:00+00:00,177.4165,12.5,12.81,47.84626,-54.09684
2017-10-09 07:20:00+00:00,179.5882,12.5,12.89,47.84626,-54.09684
2017-10-09 07:30:00+00:00,176.0814,12.49,12.89,47.84626,-54.09684
2017-10-09 07:40:00+00:00,172.6281,12.49,12.89,47.84626,-54.09684
2017-10-09 07:50:00+00:00,177.4181,12.49,12.89,47.84626,-54.09684
2017-10-09 08:00:00+00:00,185.6565,12.49,12.89,47.84626,-54.09684
2017-10-09 08:10:00+00:00,191.2748,12.49,12.81,47.84626,-54.09684
2017-10-09 08:20:00+00:00,196.8964,12.49,12.89,47.84626,-54.09684
2017-10-09 08:30:00+00:00,203.8164,12.49,12.89,47.84626,-54.09684
2017-10-09 08:40:00+00:00,208.1148,12.49,12.89,47.84626,-54.09684
2017-10-09 08:50:00+00:00,212.9431,12.49,12.89,47.84626,-54.09684
2017-10-09 09:00:00+00:00,212.9598,12.5,12.89,47.84626,-54.09684
2017-10-09 09:10:00+00:00,216.0015,12.5,12.81,47.84626,-54.09684
2017-10-09 09:20:00+00:00,222.3748,12.5,12.89,47.84626,-54.09684
2017-10-09 09:30:00+00:00,226.3564,12.5,12.89,47.84626,-54.09684
2017-10-09 09:40:00+00:00,230.4715,12.5,12.89,47.84626,-54.09684
2017-10-09 09:50:00+00:00,240.9247,12.5,12.89,47.84626,-54.09684
2017-10-09 10:00:00+00:00,248.6797,12.5,12.89,47.84626,-54.09684
2017-10-09 10:10:00+00:00,247.6081,12.5,12.81,47.84626,-54.09684
2017-10-09 10:20:00+00:00,250.2314,12.5,12.89,47.84626,-54.09684
2017-10-09 10:30:00+00:00,259.6948,12.5,12.89,47.84626,-54.09684
2017-10-09 10:40:00+00:00,265.3664,12.5,12.97,47.84626,-54.09684
2017-10-09 10:50:00+00:00,263.2448,12.5,12.97,47.84626,-54.09684
2017-10-09 11:00:00+00:00,266.8697,12.5,12.97,47.84626,-54.09684
2017-10-09 11:10:00+00:00,275.5264,12.5,12.89,47.84626,-54.09684
2017-10-09 11:20:00+00:00,282.5714,12.5,12.97,47.84626,-54.09684
2017-10-09 11:30:00+00:00,285.673,12.5,12.97,47.84626,-54.09684
2017-10-09 11:40:00+00:00,297.123,12.5,13.05,47.84626,-54.09684
2017-10-09 11:50:00+00:00,310.9047,12.5,13.05,47.84626,-54.09684
2017-10-09 12:00:00+00:00,319.1763,12.5,13.05,47.84626,-54.09684
2017-10-09 12:10:00+00:00,326.0046,12.5,13.05,47.84626,-54.09684
2017-10-09 12:20:00+00:00,340.6113,12.5,13.05,47.84626,-54.09684
2017-10-09 12:30:00+00:00,353.8813,12.5,13.05,47.84626,-54.09684
2017-10-09 12:40:00+00:00,356.363,12.5,13.13,47.84626,-54.09684
2017-10-09 12:50:00+00:00,360.1812,12.5,13.29,47.84626,-54.09684
2017-10-09 13:00:00+00:00,366.7845,12.5,13.29,47.84626,-54.09684
2017-10-09 13:10:00+00:00,370.0562,12.5,13.13,47.84626,-54.09684
2017-10-09 13:20:00+00:00,371.4464,12.5,13.13,47.84626,-54.09684
2017-10-09 13:30:00+00:00,372.038,12.5,13.21,47.84626,-54.09684
2017-10-09 13:40:00+00:00,377.1562,12.5,13.21,47.84626,-54.09684
2017-10-09 13:50:00+00:00,380.2146,12.5,13.21,47.84626,-54.09684
2017-10-09 14:00:00+00:00,377.1229,12.5,13.13,47.84626,-54.09684
2017-10-09 14:10:00+00:00,377.6646,12.5,13.05,47.84626,-54.09684
2017-10-09 14:20:00+00:00,378.858,12.5,13.21,47.84626,-54.09684
2017-10-09 14:30:00+00:00,373.5379,12.5,13.21,47.84626,-54.09684
2017-10-09 14:40:00+00:00,368.7529,12.51,13.29,47.84626,-54.09684
2017-10-09 14:50:00+00:00,369.2479,12.5,13.29,47.84626,-54.09684
2017-10-09 15:00:00+00:00,369.3513,12.5,13.21,47.84626,-54.09684
2017-10-09 15:10:00+00:00,363.4713,12.5,13.13,47.84626,-54.09684
2017-10-09 15:20:00+00:00,360.1579,12.5,13.21,47.84626,-54.09684
2017-10-09 15:30:00+00:00,360.9797,12.5,13.53,47.84626,-54.09684
2017-10-09 15:40:00+00:00,359.7579,12.5,13.53,47.84626,-54.09684
2017-10-09 15:50:00+00:00,351.8846,12.5,13.44,47.84626,-54.09684
2017-10-09 16:00:00+00:00,345.9095,12.5,13.37,47.84626,-54.09684
2017-10-09 16:10:00+00:00,342.8613,12.5,13.21,47.84626,-54.09684
2017-10-09 16:20:00+00:00,337.6413,12.5,13.29,47.84626,-54.09684
2017-10-09 16:30:00+00:00,325.7479,12.5,13.29,47.84626,-54.09684
2017-10-09 16:40:00+00:00,317.173,12.5,13.29,47.84626,-54.09684
2017-10-09 16:50:00+00:00,307.738,12.5,13.29,47.84626,-54.09684
2017-10-09 17:00:00+00:00,297.8563,12.5,13.21,47.84626,-54.09684
2017-10-09 17:10:00+00:00,285.8497,12.5,13.21,47.84626,-54.09684
2017-10-09 17:20:00+00:00,278.6314,12.5,13.29,47.84626,-54.09684
2017-10-09 17:30:00+00:00,269.0464,12.5,13.29,47.84626,-54.09684
2017-10-09 17:40:00+00:00,253.9347,12.5,13.37,47.84626,-54.09684
2017-10-09 17:50:00+00:00,243.4248,12.52,13.37,47.84626,-54.09684
2017-10-09 18:00:00+00:00,237.5348,12.53,13.29,47.84626,-54.09684
2017-10-09 18:10:00+00:00,226.6031,12.55,13.44,47.84626,-54.09684
2017-10-09 18:20:00+00:00,211.5731,12.54,13.68,47.84626,-54.09684
2017-10-09 18:30:00+00:00,207.0248,12.52,13.68,47.84626,-54.09684
2017-10-09 18:40:00+00:00,203.7098,12.55,13.6,47.84626,-54.09684
2017-10-09 18:50:00+00:00,192.5548,12.57,13.6,47.84626,-54.09684
2017-10-09 19:00:00+00:00,183.8815,12.6,13.44,47.84626,-54.09684
2017-10-09 19:10:00+00:00,183.8848,12.6,13.29,47.84626,-54.09684
2017-10-09 19:20:00+00:00,183.5831,12.61,13.29,47.84626,-54.09684
2017-10-09 19:30:00+00:00,179.2415,12.72,13.29,47.84626,-54.09684
2017-10-09 19:40:00+00:00,177.8715,12.8,13.29,47.84626,-54.09684
2017-10-09 19:50:00+00:00,184.2465,12.8,13.29,47.84626,-54.09684
2017-10-09 20:00:00+00:00,183.9648,12.88,13.21,47.84626,-54.09684
2017-10-09 20:10:00+00:00,177.2814,12.9,13.13,47.84626,-54.09684
2017-10-09 20:20:00+00:00,180.0598,12.9,13.21,47.84626,-54.09684
2017-10-09 20:30:00+00:00,190.8448,12.89,13.13,47.84626,-54.09684
2017-10-09 20:40:00+00:00,191.8248,12.89,13.13,47.84626,-54.09684
2017-10-09 20:50:00+00:00,190.8731,12.87,13.13,47.84626,-54.09684
2017-10-09 21:00:00+00:00,202.9698,12.8,13.05,47.84626,-54.09684
2017-10-09 21:10:00+00:00,211.2398,12.8,13.05,47.84626,-54.09684
2017-10-09 21:20:00+00:00,211.4765,12.8,13.05,47.84626,-54.09684
2017-10-09 21:30:00+00:00,215.5865,12.85,13.05,47.84626,-54.09684
2017-10-09 21:40:00+00:00,218.5881,12.8,13.05,47.84626,-54.09684
2017-10-09 21:50:00+00:00,220.9647,12.8,13.05,47.84626,-54.09684
2017-10-09 22:00:00+00:00,226.0681,12.8,13.05,47.84626,-54.09684
2017-10-09 22:10:00+00:00,231.7931,12.7,12.97,47.84626,-54.09684
2017-10-09 22:20:00+00:00,232.5081,12.7,13.05,47.84626,-54.09684
2017-10-09 22:30:00+00:00,232.5831,12.69,13.05,47.84626,-54.09684
2017-10-09 22:40:00+00:00,239.1964,12.68,13.05,47.84626,-54.09684
2017-10-09 22:50:00+00:00,246.6481,12.68,13.05,47.84626,-54.09684
2017-10-09 23:00:00+00:00,251.2648,12.68,12.97,47.84626,-54.09684
2017-10-09 23:10:00+00:00,254.3764,12.66,12.97,47.84626,-54.09684
2017-10-09 23:20:00+00:00,260.2681,12.64,12.97,47.84626,-54.09684
2017-10-09 23:30:00+00:00,266.6431,12.63,12.97,47.84626,-54.09684
2017-10-09 23:40:00+00:00,272.4397,12.63,13.05,47.84626,-54.09684
2017-10-09 23:50:00+00:00,281.0613,12.63,13.05,47.84626,-54.09684
